Вернуться в каталог

COSMOS 839 DEB

АктивенLEO
NORAD 17838·DEBRIS·🇷🇺 Russia

Запущен Jul 8, 1976 с Plesetsk Cosmodrome

Loading…

Ближайшие Пролёты (ближайшие 24 часа)

TLE

УстаревающийSource: Space-Track

Эпоха: Sep 12, 2026, 00:44 UTC

1 17838U 76067BK  26255.03063116  .00000253  00000-0  10363-2 0  9998
2 17838  65.9808 261.7817 0631605 164.7496 231.5625 12.46724941576377

Отслеживайте COSMOS 839 DEB в реальном времени с AllMySat

Download on the App Store